Weather History for KBFD - July, 2013

Change the Weather History Date:

Saturday, July 6, 2013

  Actual Average Record
Temperature  
Mean Temperature 75 °F 65 °F  
Max Temperature 83 °F 77 °F 93 °F (1988)
Min Temperature 66 °F 53 °F 37 °F (1979)
Degree Days  
Heating Degree Days 0 0  
Month to date heating degree days 0 1  
Since 1 June heating degree days 104 146  
Since 1 July heating degree days 0 1  
Cooling Degree Days 10 2  
Month to date cooling degree days 43 12  
Year to date cooling degree days 136 62  
Since 1 June cooling degree days 93 52  
Growing Degree Days 24 (Base 50)    
Moisture  
Dew Point 65 °F    
Average Humidity 74    
Maximum Humidity 93    
Minimum Humidity 55    
Precipitation  
Precipitation T in 0.13 in 0.80 in (1987)
Month to date precipitation 0.82 0.80  
Year to date precipitation 9.22 22.45  
Sea Level Pressure  
Sea Level Pressure 30.17 in    
Wind  
Wind Speed 3 mph (WSW)    
Max Wind Speed 12 mph    
Max Gust Speed 18 mph    
Visibility 9 miles    
Events      
T = Trace of Precipitation, MM = Missing Value Source: NWS Daily Summary

Daily Weather History Graph

Daily Weather History Graph

Search for Another Location

Airport or City:

Trip Planner

Search our weather history database for the weather conditions in past years. The results will help you decide how hot, cold, wet, or windy it might be!

Date:

Astronomy

Jul. 06, 2013 Rise Set
Actual Time 5:46 AM EDT 8:52 PM EDT
Civil Twilight 5:12 AM EDT 9:25 PM EDT
Nautical Twilight 4:29 AM EDT 10:08 PM EDT
Astronomical Twilight 3:37 AM EDT 11:00 PM EDT
Moon 4:31 AM EDT (7/6) 7:31 PM EDT (7/6)
Length of Visible Light 16h 13m
Length of Day
15h 05m
Waning Crescent, 2% of the Moon is Illuminated
Jul 6
Waning Crescent
Jul 8
New
Jul 15
First Quarter
Jul 22
Full
Jul 29
Last Quarter

Hourly Weather History & Observations

Time (EDT) Temp. Heat Index Dew Point Humidity Pressure Visibility Wind Dir Wind Speed Gust Speed Precip Events Conditions
12:53 AM 69.1 °F - 64.0 °F 84% 30.16 in 10.0 mi Variable 3.5 mph - N/A   Clear
1:53 AM 69.1 °F - 64.0 °F 84% 30.16 in 10.0 mi Calm Calm - N/A   Clear
2:53 AM 66.0 °F - 63.0 °F 90% 30.16 in 9.0 mi South 3.5 mph - N/A   Clear
3:53 AM 66.9 °F - 64.0 °F 90% 30.17 in 10.0 mi Calm Calm - N/A   Clear
4:53 AM 66.9 °F - 64.0 °F 90% 30.16 in 8.0 mi Calm Calm - N/A   Partly Cloudy
5:08 AM 66.9 °F - 64.0 °F 90% 30.21 in 8.0 mi Calm Calm - N/A   Scattered Clouds
5:18 AM 66.9 °F - 64.0 °F 90% 30.21 in 7.0 mi West 4.6 mph - N/A   Mostly Cloudy
5:53 AM 66.9 °F - 64.9 °F 93% 30.17 in 6.0 mi Variable 3.5 mph - N/A   Overcast
6:53 AM 68.0 °F - 64.9 °F 90% 30.18 in 6.0 mi Calm Calm - N/A   Overcast
7:53 AM 68.0 °F - 64.9 °F 90% 30.19 in 8.0 mi West 4.6 mph - N/A   Overcast
8:07 AM 69.1 °F - 64.9 °F 87% 30.24 in 10.0 mi Variable 4.6 mph - N/A   Overcast
8:53 AM 70.0 °F - 64.9 °F 84% 30.19 in 10.0 mi West 4.6 mph - N/A   Overcast
8:56 AM 71.1 °F - 64.9 °F 81% 30.24 in 10.0 mi SW 4.6 mph - N/A   Overcast
9:03 AM 71.1 °F - 64.9 °F 81% 30.24 in 10.0 mi SW 4.6 mph - N/A   Overcast
9:31 AM 71.1 °F - 64.9 °F 81% 30.24 in 10.0 mi SW 3.5 mph - N/A   Overcast
9:39 AM 71.1 °F - 64.9 °F 81% 30.23 in 10.0 mi Variable 4.6 mph - N/A   Overcast
9:50 AM 71.6 °F - 64.4 °F 78% 30.23 in 10.0 mi SW 8.1 mph - N/A   Overcast
9:53 AM 71.1 °F - 64.0 °F 78% 30.19 in 10.0 mi SSW 6.9 mph - N/A   Overcast
10:48 AM 73.4 °F - 64.4 °F 73% 30.23 in 10.0 mi Variable 5.8 mph - N/A   Mostly Cloudy
10:53 AM 73.9 °F - 64.9 °F 73% 30.18 in 10.0 mi SW 6.9 mph - N/A   Mostly Cloudy
11:22 AM 73.9 °F - 64.9 °F 73% 30.23 in 10.0 mi WSW 5.8 mph - N/A   Overcast
11:53 AM 75.0 °F - 64.9 °F 71% 30.18 in 10.0 mi Variable 6.9 mph - N/A   Overcast
12:00 PM 77.0 °F - 66.0 °F 69% 30.23 in 10.0 mi Variable 6.9 mph - N/A   Mostly Cloudy
12:53 PM 78.1 °F - 64.9 °F 64% 30.17 in 10.0 mi WSW 5.8 mph - N/A   Mostly Cloudy
1:53 PM 80.1 °F 81.9 °F 64.9 °F 60% 30.15 in 10.0 mi SW 8.1 mph - N/A   Scattered Clouds
2:53 PM 80.1 °F 81.9 °F 64.9 °F 60% 30.14 in 10.0 mi West 4.6 mph - N/A   Mostly Cloudy
3:53 PM 82.0 °F 83.8 °F 64.9 °F 56% 30.12 in 10.0 mi Variable 4.6 mph - N/A   Clear
4:53 PM 80.1 °F 81.9 °F 64.9 °F 60% 30.10 in 10.0 mi SW 3.5 mph - N/A   Overcast
5:53 PM 79.0 °F - 66.0 °F 64% 30.09 in 10.0 mi Calm Calm - N/A   Overcast
6:53 PM 79.0 °F - 66.0 °F 64% 30.08 in 10.0 mi NNW 8.1 mph - N/A   Partly Cloudy
7:53 PM 75.0 °F - 68.0 °F 79% 30.09 in 10.0 mi Calm Calm - N/A   Clear
8:53 PM 73.0 °F - 68.0 °F 84% 30.09 in 10.0 mi Calm Calm - N/A   Scattered Clouds
9:53 PM 72.0 °F - 68.0 °F 87% 30.10 in 9.0 mi Calm Calm - 0.00 in   Mostly Cloudy
10:53 PM 70.0 °F - 66.9 °F 90% 30.11 in 7.0 mi Calm Calm - N/A   Scattered Clouds
11:53 PM 69.1 °F - 64.9 °F 87% 30.11 in 7.0 mi Calm Calm - N/A   Scattered Clouds